Location: Blankensee
(53.5126°N, 14.3055°E)
Time: 18:08:30
(UTC+00:00)

Cosmos 2297 Rocket - Pass Details

Date: 08 August 2020
Orbit: 838 x 845 km, 71.0° (Epoch: 20 September)

Event Time Altitude Azimuth Distance (km) Brightness Sun altitude
Exits shadow 02:13:12 11° 246° (WSW) 2,414 4.0 -10.0°
Maximum altitude 02:18:21 40° 315° (NW) 1,231 3.1 -9.5°
Drops below altitude 10° 02:23:40 10° 25° (NNE) 2,471 5.9 -8.9°
Sets 02:26:18 0° 33° (NNE) 3,410 7.2 -8.6°
